Battle Creek, MI

6:18 AM EST on January 24, 2017 (GMT -0500)
Kellogg

Weather History for KBTL - September, 2013

Change the Weather History Date:

Tuesday, September 10, 2013

  Actual Average Record
Temperature  
Mean Temperature 82 °F 64 °F  
Max Temperature 91 °F 76 °F 91 °F (2013)
Min Temperature 73 °F 52 °F 44 °F (1998)
Degree Days  
Heating Degree Days 0 3  
Month to date heating degree days 4 24  
Since 1 July heating degree days 42 65  
Cooling Degree Days 17 2  
Month to date cooling degree days 50 30  
Year to date cooling degree days 655 548  
Growing Degree Days 32 (Base 50)    
Moisture  
Dew Point 67 °F    
Average Humidity 63    
Maximum Humidity 84    
Minimum Humidity 41    
Precipitation  
Precipitation 0.00 in 0.11 in 1.86 in (2000)
Month to date precipitation 1.21 1.17  
Year to date precipitation 27.38 22.71  
Sea Level Pressure  
Sea Level Pressure 29.98 in    
Wind  
Wind Speed 10 mph (SW)    
Max Wind Speed 20 mph    
Max Gust Speed 23 mph    
Visibility 10 miles    
Events      
T = Trace of Precipitation, MM = Missing Value Source: NWS Daily Summary

Daily Weather History Graph

Daily Weather History Graph

Search for Another Location

Airport or City:

Trip Planner

Search our weather history database for the weather conditions in past years. The results will help you decide how hot, cold, wet, or windy it might be!

Date:

Astronomy

Sep. 10, 2013 Rise Set
Actual Time 7:15 AM EDT 7:59 PM EDT
Civil Twilight 6:47 AM EDT 8:27 PM EDT
Nautical Twilight 6:13 AM EDT 9:00 PM EDT
Astronomical Twilight 5:39 AM EDT 9:35 PM EDT
Moon 12:47 PM EDT (9/10) 10:54 PM EDT (9/10)
Length of Visible Light 13h 39m
Length of Day
12h 43m
Waxing Crescent, 28% of the Moon is Illuminated
Sep 10
Waxing Crescent
Sep 12
First Quarter
Sep 19
Full
Sep 26
Last Quarter
Oct 4
New

Hourly Weather History & Observations

Time (EDT) Temp. Heat Index Dew Point Humidity Pressure Visibility Wind Dir Wind Speed Gust Speed Precip Events Conditions
12:53 AM 77.0 °F - 70.0 °F 79% 29.89 in 9.0 mi SSW 10.4 mph - N/A   Clear
1:53 AM 77.0 °F - 70.0 °F 79% 29.90 in 9.0 mi SW 9.2 mph - N/A   Clear
2:53 AM 77.0 °F - 70.0 °F 79% 29.91 in 10.0 mi SW 10.4 mph - N/A   Clear
3:53 AM 75.9 °F - 69.1 °F 79% 29.91 in 10.0 mi SW 9.2 mph - N/A   Clear
4:53 AM 77.0 °F - 69.1 °F 76% 29.93 in 10.0 mi SW 9.2 mph - N/A   Clear
5:53 AM 75.0 °F - 68.0 °F 79% 29.94 in 10.0 mi SW 8.1 mph - N/A   Clear
6:53 AM 73.0 °F - 68.0 °F 84% 29.96 in 10.0 mi SW 8.1 mph - N/A   Clear
7:53 AM 73.0 °F - 68.0 °F 84% 29.97 in 8.0 mi SW 8.1 mph - N/A   Clear
8:53 AM 77.0 °F - 68.0 °F 74% 29.98 in 10.0 mi SW 10.4 mph - N/A   Clear
9:53 AM 80.1 °F 82.9 °F 69.1 °F 69% 29.99 in 10.0 mi WSW 12.7 mph - N/A   Clear
10:53 AM 82.9 °F 86.5 °F 69.1 °F 63% 30.01 in 10.0 mi WSW 12.7 mph - N/A   Clear
11:53 AM 86.0 °F 88.8 °F 66.9 °F 53% 30.01 in 10.0 mi West 13.8 mph - N/A   Clear
12:53 PM 88.0 °F 89.6 °F 64.9 °F 46% 30.01 in 10.0 mi WSW 12.7 mph 21.9 mph N/A   Clear
1:53 PM 90.0 °F 91.3 °F 64.0 °F 42% 30.00 in 10.0 mi West 15.0 mph - N/A   Clear
2:53 PM 91.0 °F 93.0 °F 64.9 °F 42% 30.00 in 10.0 mi West 11.5 mph - N/A   Clear
3:53 PM 91.0 °F 92.6 °F 64.0 °F 41% 29.99 in 10.0 mi WSW 13.8 mph - N/A   Clear
4:53 PM 90.0 °F 91.3 °F 64.0 °F 42% 29.99 in 10.0 mi West 11.5 mph - N/A   Clear
5:53 PM 89.1 °F 90.3 °F 64.0 °F 43% 29.99 in 10.0 mi West 6.9 mph - N/A   Clear
6:53 PM 86.0 °F 88.8 °F 66.9 °F 53% 29.99 in 10.0 mi WSW 5.8 mph - N/A   Clear
7:53 PM 80.1 °F 82.7 °F 68.0 °F 67% 30.00 in 10.0 mi SW 5.8 mph - N/A   Clear
8:53 PM 77.0 °F - 66.9 °F 71% 30.01 in 10.0 mi SW 4.6 mph - N/A   Clear
9:53 PM 77.0 °F - 66.0 °F 69% 30.02 in 10.0 mi SSW 4.6 mph - N/A   Clear
10:53 PM 75.0 °F - 64.9 °F 71% 30.01 in 10.0 mi SSW 4.6 mph - N/A   Clear
11:53 PM 75.9 °F - 64.9 °F 69% 30.01 in 10.0 mi SSW 9.2 mph - N/A   Clear